Terminal Aerodrome Forecast
Issued by NWS

Home | Current Version | Previous Version | Text Only | Print | Product List | Glossary On
Versions: 1 2 3 4 5 6 7 8 9 10 11 12 13 14 15 16 17 18 19 20 21 22 23 24 25 26 27 28 29 30 31 32 33 34 35 36 37 38 39 40 41 42 43 44 45 46 47 48 49 50
000
FTUS41 KCTP 132143 AAA
TAFJST
TAF AMD
KJST 132143Z 1322/1418 31018G23KT 1/2SM SN FEW018 OVC028
     FM132300 29015G22KT P6SM OVC028
     FM140800 28012KT P6SM OVC020
     FM141600 27005KT P6SM OVC050=

USA.gov is the U.S. government's official web portal to all federal, state and local government web resources and services.